Regional Weather Roundup
Issued by NWS Bismarck, ND

Home | Current Version | Previous Version | Text Only | Print | Product List | Glossary On
Versions: 1 2 3 4 5 6 7 8 9 10 11 12 13 14 15 16 17 18 19 20 21 22 23 24 25 26 27 28 29 30 31 32 33 34 35 36 37 38 39 40 41 42 43 44 45 46 47 48 49 50
000
ASUS43 KBIS 280920
RWRBIS

NWR BROADCAST TEXT
NATIONAL WEATHER SERVICE BISMARCK ND
400 AM CDT SAT MAR 28 2015

NOTE: "FAIR" INDICATES FEW OR NO CLOUDS BELOW 12,000 FEET WITH NO
SIGNIFICANT WEATHER AND/OR OBSTRUCTIONS TO VISIBILITY.


CITY           SKY/WX    TMP DP  RH WIND       PRES   REMARKS
WILLISTON      CLEAR     30  28  92 CALM      29.88F
MINOT          PTCLDY    25  23  92 CALM      29.94F
MINOT AFB      PTCLDY    25  25 100 SE3       29.93F
BISMARCK       CLOUDY    30  30 100 SE9       29.99R FOG
DICKINSON      CLEAR     32  28  85 S9        29.89F
GARRISON         N/A     27  25  92 CALM      29.94S
HETTINGER ARPT CLEAR     32  28  85 CALM      29.94S
JAMESTOWN      CLOUDY    29  26  89 S12       30.03S WCI  19
BEACH          FAIR      39  36  87 S13G20    29.88F
CARRINGTON     CLOUDY    28  28 100 S14       30.01S FOG     WCI  17
CROSBY         FAIR      32  32 100 S8        29.89F
HARVEY         CLOUDY    28  28 100 S8        29.98F FOG
HAZEN          FAIR      25  25 100 CALM      29.95F
LINTON         FOG       28  28 100 SE10      29.99S VSB 1/2 WCI  19
MANDAN         FOG       28  28 100 SE7       29.98R VSB 1/4
OAKES            N/A     28  28 100 SE12      30.06S WCI  18
RUGBY          CLOUDY    28  28 100 S12G20    29.98F WCI  18
TIOGA          FAIR      28  28 100 SE6       29.92F FOG
WATFORD CITY   FAIR      32  32 100 SE9       29.88F
$$

CITY           SKY/WX    TMP DP  RH WIND       PRES   REMARKS
GRAND FORKS    CLEAR     22  19  89 SE8       30.09F WCI  12
GRAND FORKS AF MOCLDY    23  19  86 SE8       30.08S WCI  14
DEVILS LAKE    CLOUDY    28  25  86 S14       30.00F WCI  17
FARGO          CLEAR     28  18  66 SE9       30.10F WCI  19
CANDO          CLOUDY    28  28 100 S12       30.00F WCI  18
CAVALIER         N/A     25  23  93 S7        30.07F WCI  17
GWINNER        CLOUDY    32  30  93 S9          N/A
ROLLA          FOG       27  27 100 S16       29.98S VSB 1/2 WCI  14
WALHALLA         N/A     25  25 100 SE6       30.05F WCI  18
$$

CITY           SKY/WX    TMP DP  RH WIND       PRES   REMARKS
ABERDEEN       CLOUDY    32  26  78 S7        30.06S
MOBRIDGE       CLEAR     25  23  92 E8        29.96S WCI  16
BUFFALO          N/A     39  32  76 S7        29.86F
RAPID CITY     PTCLDY    35  30  82 CALM      29.94F
GLASGOW        PTCLDY    42  35  76 E12       29.78F
SIDNEY         CLEAR     34  28  80 CALM      29.85F
WOLF POINT     PTCLDY    37  33  85 E6        29.82F
GLENDIVE         N/A     34  28  80 S7        29.85F
MILES CITY     CLEAR     44  33  65 SE12      29.84F
BAKER          CLEAR     40  34  79 SE9       29.89F
$$

CITY           SKY/WX    TMP DP  RH WIND       PRES   REMARKS
BILLINGS       CLEAR     56  32  40 SW17      29.89F
GREAT FALLS    CLEAR     52  34  50 S9        29.81F
REGINA         PTCLDY    32  32 100 SE18      29.82F
ESTEVAN        CLOUDY    32  30  93 SE12      29.89F
$$




USA.gov is the U.S. government's official web portal to all federal, state and local government web resources and services.